Satellite-Ground Cal/Val Region Overpasses Predictions

Prediction of Satellite NPP Overpassing Cal/Val Region: PacNW

Region Location: (Latitude: 10.00, Longitude: 139.50) to (Latitude: 22.70, Longitude: 165.60).

Table of predicted overpasses for the next 14.0 days since TLE Epoch: 9/18/2016
Interval Starting Time Starting Location Ending Time Ending Location
1 09/18/2016 16:02:17 ( 22.69, 144.52) 09/18/2016 16:05:53 ( 10.01, 141.51)
2 09/19/2016 03:11:23 ( 10.04, 152.04) 09/19/2016 03:14:58 ( 22.66, 149.04)
3 09/19/2016 15:43:17 ( 22.67, 149.27) 09/19/2016 15:46:52 ( 10.04, 146.27)
4 09/20/2016 02:52:23 ( 10.06, 156.79) 09/20/2016 02:55:58 ( 22.68, 153.79)
5 09/20/2016 15:24:16 ( 22.64, 154.02) 09/20/2016 15:27:51 ( 10.02, 151.02)
6 09/21/2016 02:33:21 ( 10.02, 161.55) 09/21/2016 02:36:57 ( 22.70, 158.54)
7 09/21/2016 15:05:15 ( 22.68, 158.78) 09/21/2016 15:08:51 ( 10.00, 155.77)
8 09/22/2016 02:15:13 ( 13.09, 165.60) 09/22/2016 02:17:56 ( 22.66, 163.30)
9 09/22/2016 03:55:51 ( 10.04, 140.93) 09/22/2016 03:57:35 ( 16.15, 139.51)
10 09/22/2016 14:46:15 ( 22.66, 163.53) 09/22/2016 14:49:50 ( 10.04, 160.53)
11 09/23/2016 03:36:49 ( 10.00, 145.69) 09/23/2016 03:40:25 ( 22.68, 142.67)
12 09/23/2016 14:30:25 ( 11.42, 165.60) 09/23/2016 14:30:49 ( 10.01, 165.28)
13 09/23/2016 16:08:43 ( 22.69, 142.92) 09/23/2016 16:12:19 ( 10.01, 139.90)
14 09/24/2016 03:17:49 ( 10.03, 150.43) 09/24/2016 03:21:24 ( 22.65, 147.43)
15 09/24/2016 15:49:43 ( 22.67, 147.66) 09/24/2016 15:53:18 ( 10.05, 144.66)
16 09/25/2016 02:58:48 ( 10.05, 155.18) 09/25/2016 03:02:23 ( 22.67, 152.18)
17 09/25/2016 15:30:42 ( 22.65, 152.41) 09/25/2016 15:34:17 ( 10.03, 149.41)
18 09/26/2016 02:39:47 ( 10.01, 159.94) 09/26/2016 02:43:23 ( 22.69, 156.93)
19 09/26/2016 15:11:41 ( 22.68, 157.17) 09/26/2016 15:15:17 ( 10.00, 154.16)
20 09/27/2016 02:20:46 ( 10.04, 164.69) 09/27/2016 02:24:21 ( 22.66, 161.69)
21 09/27/2016 14:52:40 ( 22.66, 161.92) 09/27/2016 14:56:15 ( 10.04, 158.92)
22 09/28/2016 03:43:15 ( 10.00, 144.08) 09/28/2016 03:46:51 ( 22.68, 141.06)
23
